User: anonymous   Login
Location: Unspecified
(0.0000°N, 0.0000°E)
Time: 03:49:31
(UTC+01:00)
Language:

Palapa 6 Rocket - Orbit

View from above orbital plane
View from above orbital plane
View from above satellite
View from above satellite

Ground track
Ground track

The orbit data is extracted from the following two-line orbital elements,

1 20571U 90034B   17344.97823323  .00000687  00000-0  54676-4 0  9990
2 20571  22.7433 206.0425 0508210 120.4101 244.7572 14.12060687417044
Epoch (UTC): 10 December 2017 23:28:39
Eccentricity: 0.0508210
inclination: 22.7433°
perigee height: 485 km
apogee height: 1220 km
right ascension of ascending node: 206.0425°
argument of perigee: 120.4101°
revolutions per day: 14.12060687
mean anomaly at epoch: 244.7572°
orbit number at epoch: 41704

The dashed part of the orbit path shows where the satellite is in the earth's shadow,  

DLR